Home > Weather > Burg > Past weeks

Flag for Germany Past Weather in Burg, Saxony-Anhalt, Germany — Yesterday and Last 2 Weeks

Now
84 °F

Sunny.


Feels Like: 84 °F
Forecast: 62 / 83 °F
Wind: 9 mph from Southeast

Location: Braunschweig Wolfsburg

Current Time: Aug 24, 2016 at 8:12:43 PM

Latest Report: Aug 24, 2016 at 7:20 PM


Visibility: 10 mi

Pressure: 30.18 "Hg

Humidity: 43%

Dew Point: 59 °F

Location of BurgLocation

Past Weather in Burg — Graph

°F

Burg Temperature Yesterday

Maximum temperature yesterday: 77 °F (at 6:20 PM)
Minimum temperature yesterday: 63 °F (at 6:50 AM)
Average temperature yesterday: 71 °F

High & Low Weather Summary for the Past Weeks

 TemperatureHumidityPressure
High88 °F (Aug 24, 4:20 PM)100% (Aug 12, 7:50 AM)30.33 "Hg (Aug 12, 7:50 AM)
Low46 °F (Aug 11, 6:50 AM)31% (Aug 18, 3:50 PM)29.80 "Hg (Aug 18, 3:50 PM)
Average66 °F64%30.10 "Hg
* Reported Aug 9 6:20 PM — Aug 24 6:50 PM, Burg, Weather by CustomWeather, © 2016

Note: Actual official high and low records may vary slightly from our data, if they occured in-between our weather recording intervals... More about our weather records

Advertising

Burg Weather History for the Previous 24 Hours

Scroll right to see more
 ConditionsComfort  
Time TempWeatherWind HumidityBarometerVisibility
6:50 PM
Wed, Aug 24
86 °FSunny.12 mph40%30.18 "Hg10 mi
6:20 PM86 °FSunny.10 mph40%30.18 "Hg10 mi
5:50 PM88 °FSunny.10 mph38%30.18 "Hg10 mi
5:20 PM88 °FSunny.9 mph35%30.18 "Hg10 mi
4:50 PM88 °FPassing clouds.8 mph38%30.21 "HgN/A
4:20 PM88 °FPassing clouds.7 mph38%30.21 "HgN/A
3:50 PM86 °FPassing clouds.8 mph40%30.21 "HgN/A
3:20 PM86 °FPassing clouds.8 mph40%30.21 "HgN/A
2:50 PM86 °FPassing clouds.8 mph40%30.21 "HgN/A
2:20 PM84 °FPassing clouds.7 mph43%30.24 "HgN/A
1:50 PM84 °FPassing clouds.7 mph43%30.24 "HgN/A
1:20 PM82 °FPassing clouds.6 mph45%30.24 "HgN/A
12:50 PM82 °FPassing clouds.7 mph45%30.24 "HgN/A
12:20 PM81 °FPassing clouds.8 mph51%30.27 "HgN/A
11:50 AM81 °FPassing clouds.8 mph51%30.27 "HgN/A
10:50 AM79 °FSunny.9 mph54%30.27 "Hg10 mi
9:50 AM73 °FPassing clouds.7 mph74%30.27 "HgN/A
9:20 AM72 °FPassing clouds.5 mph78%30.27 "HgN/A
8:50 AM68 °FSunny.3 mph88%30.27 "Hg10 mi
8:20 AM66 °FSunny.3 mph88%30.27 "Hg10 mi
7:50 AM63 °FSunny.5 mph100%30.27 "Hg10 mi
7:20 AM61 °FClear.6 mph100%30.27 "Hg5 mi
6:50 AM59 °FClear.7 mph100%30.27 "Hg4 mi
6:20 AM59 °FClear.7 mph94%30.27 "Hg4 mi
Weather by CustomWeather, © 2016

See weather overviewHow to use our weather pages